Home   Weather   Colchester   Past weeks

Flag for United Kingdom Past Weather in Colchester, England, United Kingdom — Yesterday and Last 2 Weeks

Now
54 °F

Cool.


Feels Like: 49 °F
Forecast: 46 / 56 °F
Wind: 16 mph from Southeast

Location: Luton Airport

Current Time: Apr 30, 2017 at 10:03:55 am

Latest Report: Apr 30, 2017 at 9:20 am


Visibility: N/A

Pressure: 29.62 "Hg

Humidity: 63%

Dew Point: 41 °F

Location of ColchesterLocation

Past Weather in Colchester — Graph

°F

Colchester Temperature Yesterday

Maximum temperature yesterday: 55 °F (at 12:50 pm)
Minimum temperature yesterday: 37 °F (at 4:50 am)
Average temperature yesterday: 49 °F

High & Low Weather Summary for the Past Weeks

 TemperatureHumidityPressure
High59 °F (Apr 23, 2:50 pm)100% (Apr 26, 4:20 am)30.63 "Hg (Apr 26, 4:20 am)
Low32 °F (Apr 25, 4:20 am)33% (Apr 19, 4:50 pm)29.65 "Hg (Apr 30, 8:20 am)
Average46 °F73%30.19 "Hg
* Reported Apr 15 8:20 am — Apr 30 8:50 am, Colchester, Weather by CustomWeather, © 2017

Note: Actual official high and low records may vary slightly from our data, if they occured in-between our weather recording intervals... More about our weather records

Advertising

Colchester Weather History for the Previous 24 Hours

Scroll right to see more
 ConditionsComfort  
Time TempWeatherWind HumidityBarometerVisibility
8:50 am
Sun, Apr 30
50 °FCool.16 mph71%29.65 "HgN/A
8:20 am50 °FCool.14 mph71%29.65 "HgN/A
7:50 am48 °FCool.12 mph76%29.68 "HgN/A
7:20 am46 °FCool.12 mph82%29.68 "HgN/A
6:50 am46 °FCool.12 mph82%29.68 "HgN/A
6:20 am45 °FQuite cool.12 mph81%29.68 "HgN/A
5:50 am45 °FQuite cool.12 mph81%29.71 "HgN/A
5:20 am45 °FQuite cool.13 mph81%29.71 "HgN/A
4:50 am45 °FQuite cool.10 mph76%29.74 "HgN/A
4:20 am46 °FCool.10 mph71%29.74 "HgN/A
3:50 am46 °FCool.12 mph71%29.74 "HgN/A
3:20 am48 °FCool.15 mph71%29.77 "HgN/A
2:50 am48 °FCool.14 mph71%29.77 "HgN/A
2:20 am48 °FCool.15 mph71%29.80 "HgN/A
1:50 am48 °FCool.15 mph71%29.80 "HgN/A
1:20 am48 °FCool.15 mph71%29.80 "HgN/A
12:50 am48 °FCool.14 mph76%29.80 "HgN/A
12:20 am48 °FCool.10 mph76%29.83 "HgN/A
11:50 pm
Sat, Apr 29
46 °FCool.9 mph87%29.83 "HgN/A
11:20 pm46 °FCool.9 mph87%29.83 "Hg6 mi
10:50 pm46 °FCool.9 mph87%29.83 "HgN/A
10:20 pm48 °FCool.9 mph76%29.86 "HgN/A
9:50 pm48 °FCool.12 mph71%29.86 "HgN/A
9:20 pm50 °FCool.13 mph62%29.86 "HgN/A
8:50 pm52 °FCool.8 mph58%29.86 "HgN/A
8:20 pm52 °FCool.8 mph58%29.86 "HgN/A
7:50 pm52 °FCool.6 mph58%29.86 "HgN/A
7:20 pm54 °FCool.8 mph54%29.86 "HgN/A
6:50 pm55 °FRefreshingly cool.8 mph51%29.86 "HgN/A
6:20 pm54 °FPartly sunny.9 mph54%29.86 "HgN/A
5:50 pm55 °FPartly sunny.10 mph51%29.89 "HgN/A
5:20 pm55 °FPartly sunny.9 mph51%29.89 "HgN/A
4:50 pm55 °FPartly sunny.12 mph51%29.89 "HgN/A
4:20 pm55 °FOvercast.8 mph55%29.92 "HgN/A
3:50 pm54 °FPartly sunny.8 mph63%29.92 "HgN/A
3:20 pm55 °FMostly cloudy.7 mph59%29.92 "HgN/A
2:50 pm55 °FOvercast.7 mph59%29.95 "HgN/A
2:20 pm55 °FOvercast.7 mph55%29.95 "HgN/A
1:50 pm55 °FOvercast.8 mph51%29.95 "HgN/A
1:20 pm55 °FOvercast.7 mph55%29.95 "HgN/A
12:50 pm55 °FOvercast.5 mph55%29.98 "HgN/A
12:20 pm54 °FOvercast.8 mph63%29.98 "HgN/A
11:50 am54 °FOvercast.8 mph58%29.98 "HgN/A
11:20 am52 °FOvercast.9 mph58%29.98 "HgN/A
10:50 am52 °FOvercast.8 mph58%30.01 "HgN/A
10:20 am52 °FOvercast.5 mph58%30.01 "HgN/A
Weather by CustomWeather, © 2017

See weather overviewHow to use our weather pages